Location: Caltech
(34.1382°N, 118.1253°W)
Time: 15:34:18
(UTC-07:00)

Saudisat 1A - Visible Passes

Search period start: 30 April 2016 00:00
Search period end: 10 May 2016 00:00
Orbit: 563 x 631 km, 64.6° (Epoch: 30 April)

Date Brightness Start Highest point End Pass type
(mag) Time Alt. Az. Time Alt. Az. Time Alt. Az.
02 May 11.3 00:26:00 10° N 00:26:00 10° N 00:26:04 10° N visible
03 May 11.3 00:35:18 11° NNW 00:35:18 11° NNW 00:35:30 10° NNW visible
04 May 10.7 23:16:49 16° N 23:16:49 16° N 23:17:54 10° NNE visible
05 May 10.6 23:25:28 20° NNW 23:25:28 20° NNW 23:27:40 10° N visible
06 May 9.4 21:57:03 27° NE 21:57:03 27° NE 21:59:14 10° NE visible
06 May 10.9 23:33:34 12° WNW 23:34:39 13° NW 23:36:52 10° NNW visible
07 May 8.3 22:04:01 49° WSW 22:05:01 65° WNW 22:09:32 10° NNE visible
08 May 9.3 20:33:00 10° SSE 20:36:13 20° ESE 20:39:28 10° ENE visible
08 May 9.6 22:11:20 10° WSW 22:15:24 34° NW 22:19:32 10° N visible
09 May 8.5 20:42:12 10° S 20:46:18 38° ESE 20:50:29 10° NE visible
09 May 10.7 22:22:35 10° W 22:25:52 20° NW 22:29:13 10° N visible
